Mobirise responsive web design software

REALTIME WEATHER NETWORK

Station: ALVERCA
Elevation: 11 ft
Latest report: --

METAR
Station not yet available

Station: AGUEDA (CASARÃO)
Elevation: 304 ft
Latest report: --

METAR
Station not yet available

Station: ALENTEJO AIR PARK
Elevation: 422 ft
Latest report: --

METAR
Station not yet available

Station: ALQUEIDÃO
Elevation: 10 ft
Latest report: --

METAR
Station not yet available

Station: AMENDOEIRA
Elevation: 636 ft
Latest report: --

METAR
Station not yet available

Station: ATOUGUIA DA BALEIA
Elevation: 30 ft
Latest report: --

METAR
Station not yet available

Station: AZAMBUJA
Elevation: 15 ft
Latest report: --

METAR
Station not yet available

Station: BEJA
Elevation: 636 ft
Latest report: NOAA

METAR
LPBJ 201500Z 30010KT 8000 3500NW -DZ SCT010 BKN012 BKN026 21/19 Q1022

TAF
LPBJ 201107Z 2012/2112 31005KT 9999 SCT007 BKN012 PROB40
TEMPO 2012/2014 6000 -DZ SCT006 BKN010
BECMG 2012/2015 29008KT SCT015 BKN020
BECMG 2021/2024 VRB02KT 0500 FG OVC002
BECMG 2108/2111 31008KT 9999 NSW SCT005 SCT015

Station: BEJA CIVIL
Elevation: 617 ft
Latest report: --

METAR
Station not yet available

Station: BENAVENTE
Elevation: 100 ft
Latest report: 2017-10-20 15:44:14Z

METAR
BENAV 201540Z 23006KT 22/22 Q1019

Station: BRAGA
Elevation: 243 ft
Latest report: --

METAR
Station not yet available

Station: BRAGANÇA
Elevation: 2278 ft
Latest report: 2017-10-20 15:46:53Z

METAR
LPBG 201545Z 00000KT 16/16 Q1017

Station: CABECEIRAS DE BASTO
Elevation: 2411 ft
Latest report: --

METAR
Station not yet available

Station: CASCAIS
Elevation: 326 ft
Latest report: NOAA

METAR
LPCS 201530Z 27005KT 230V310 6000 -DZ FEW006 SCT010 BKN012 20/19 Q1021

Station: CASTELO BRANCO
Elevation: 1251 ft
Latest report: --

METAR
Station not yet available

Station: CASTRO VERDE (HERDADE DA ZAMBUJEIRA)
Elevation: 732 ft
Latest report: --

METAR
Station not yet available

Station: CERVAL
Elevation: 141 ft
Latest report: --

METAR
Station not yet available

Station: CHAVES
Elevation: 1195 ft
Latest report: --

METAR
Station not yet available

Station: ESPINHO
Elevation: 13 ft
Latest report: --

METAR
Station not yet available

Station: ÉVORA
Elevation: 807 ft
Latest report: --

METAR
Station not yet available

Station: FARO
Elevation: 24 ft
Latest report: NOAA

METAR
LPFR 201530Z 25011KT 9999 FEW020 BKN030 22/20 Q1021

TAF
LPFR 201100Z 2012/2112 24008KT 9999 FEW015 BKN035
BECMG 2018/2021 33008KT SCT020
BECMG 2102/2105 VRB03KT

Station: FERREIRA DO ALENTEJO
Elevation: 459 ft
Latest report: --

METAR
Station not yet available

Station: FERREIRA DO ZÊZERE (VALADAS)
Elevation: 1080 ft
Latest report: --

METAR
Station not yet available

Station: FIGUEIRA DOS CAVALEIROS
Elevation: 262 ft
Latest report: --

METAR
Station not yet available

Station: LAGOS
Elevation: 15 ft
Latest report: --

METAR
Station not yet available

Station: LAMEIRA
Elevation: 623 ft
Latest report: --

METAR
Station not yet available

Station: LAÚNDOS
Elevation: 262 ft
Latest report: --

METAR
Station not yet available

Station: LEIRIA
Elevation: 139 ft
Latest report: --

METAR
Station not yet available

Station: LISBOA
Elevation: 374 ft
Latest report: NOAA

METAR
LPPT 201530Z 26006KT 230V300 9999 VCSH FEW013 BKN018 21/18 Q1021

TAF
LPPT 201100Z 2012/2118 25008KT 9999 BKN018
TEMPO 2012/2018 SCT025
BECMG 2018/2021 SCT005 BKN010
TEMPO 2021/2105 3000 DZRA BR SCT002 BKN005
BECMG 2105/2107 36010KT SCT020 SCT040
BECMG 2110/2112 FEW040

Station: LOUSÃ
Elevation: 654 ft
Latest report: --

METAR
Station not yet available

Station: VILAR DE LUZ
Elevation: 762 ft
Latest report: 2017-10-20 15:47:07Z

METAR
LPVL 201545Z 20004KT 20/20 Q1018

Station: MIRANDELA
Elevation: 1322 ft
Latest report: 2017-10-20 15:47:17Z

METAR
LPMI 201545Z 00000KT 17/17 Q1016

Station: MOGADOURO
Elevation: 2344 ft
Latest report: 2017-10-20 15:48:36Z

METAR
LPMU 201545Z 26010KT 18/15 Q1018

Station: MONFORTE
Elevation: 900 ft
Latest report: --

METAR
Station not yet available

Station: PALMA
Elevation: 281 ft
Latest report: --

METAR
Station not yet available

Station: PEGÕES (HERDADE DO PONTAL
Elevation: 295 ft
Latest report: --

METAR
Station not yet available

Station: PONTE DE SÔR
Elevation: 390 ft
Latest report: --

METAR
Station not yet available

Station: POMBAL (CASALINHO)
Elevation: 250 ft
Latest report: --

METAR
Station not yet available

Station: PORTIMÃO
Elevation: 4 ft
Latest report: --

METAR
Station not yet available

Station: PORTO
Elevation: 227 ft
Latest report: NOAA

METAR
LPPR 201530Z 19009KT 7000 BKN002 BKN044 19/19 Q1019

TAF
LPPR 201100Z 2012/2112 19008KT 3000 BR BKN002
TEMPO 2012/2023 0600 DZ FG VV001 PROB30 2012/2018 8000 NSW SCT005 BKN010
BECMG 2023/2102 32008KT 6000 -RA SCT012 BKN025
BECMG 2102/2104 9999 NSW FEW030

Station: PROENÇA-A-NOVA
Elevation: 407 ft
Latest report: --

METAR
Station not yet available

Station: REGUENGOS (CAMPINHO)
Elevation: 630 ft
Latest report: --

METAR
Station not yet available

Station: SABUGAL (CABEÇO DA VACA)
Elevation: 3117 ft
Latest report: --

METAR
Station not yet available

Station: SANTA CRUZ
Elevation: 161 ft
Latest report: --

METAR
Station not yet available

Station: SANTARÉM
Elevation: 30 ft
Latest report: --

METAR
Station not yet available

Station: SEIA
Elevation: 1445 ft
Latest report: --

METAR
Station not yet available

Station: TOJEIRA
Elevation: 330 ft
Latest report: --

METAR
Station not yet available

Station: TOMAR (VALDONAS)
Elevation: 253 ft
Latest report: --

METAR
Station not yet available

Station: VILA REAL
Elevation: 1832 ft
Latest report: --

METAR
Station not yet available

Station: VISEU
Elevation: 2061 ft
Latest report: --

METAR
Station not yet available

Station: LEZÍRIA
Elevation: 10 ft
Latest report: --

METAR
Station not yet available

Station: FAIAS
Elevation: 134 ft
Latest report: --Z

METAR
Station not yet available

Station: COIMBRA
Elevation: 570 ft
Latest report: --Z

METAR
Station not yet available

Station: GARROCHEIRA
Elevation: 0 ft
Latest report: --

METAR
Station not yet available

ABOUT US

Our main objective is to increase information and safety on outdoor activities with a focus on Sports Aviation. This network of weather information gathers data from devices located in several airfields and other locations in order to provide the most accurate and localized weather information at all times. Join our network to increase the number of locations covered. Check how on the CONTACT US section.

REALTIME WEATHER NETWORK by Stingray Avionics

JOIN OUR NETWORK